Aérodrome :
LOGIN :

S'inscrire | Disclaimer

   EN    FR    IT 

 










Légende :    VFR   VFR Marginal   IFR   IFR Intensif   IFR Très Intensif
Visi : 
Plafond : 
>= 8 km
>= 3000ft
5 à 8 km
1000 à 3000 ft
1500m à 5 km
500 à 1000 ft
800 à 1500m
200 à 500 ft
< 800m
< 200 ft
Symboles :   Orages  Brouillard  Fortes neiges  Fortes précipitations  Vent > 20 kt
SIGMETs :   Divers  Orages  Givrage  Turbulence  Onde Orograph.  Cendres Volcan.







- Altitude de l'aérodrome : 1521 ft
- Code IATA : NCY
- Voir les cartes d'approche


LFLP - Annecy

DERNIER METAR :
  • 190100Z AUTO 03004KT CAVOK 15/14 Q1014

METARs EXPIRÉS :
  • 190030Z AUTO 03004KT CAVOK 15/14 Q1014
  • 190000Z AUTO 05006KT CAVOK 16/14 Q1014
  • 182330Z AUTO 03003KT CAVOK 17/14 Q1015
  • 182300Z AUTO 06006KT CAVOK 16/15 Q1015
  • 182230Z AUTO 04005KT CAVOK 17/15 Q1015

TAF TAF LFLP
Valide du 18 à 15h jusqu'au 19 à 15h UTC


181400Z 1815/1915 22005KT CAVOK
Pas de NOTAMs connus pour ce terrain.



MET'MAP, la Météo Aéronautique d'un coup d'oeil ! - Copyright ORBIFLY Décembre 2007 - Disclaimer

ORBIFLY MET'MAP TEAM :

Programmation & Développement : Alexandra Zaïnal
Conception & Développement : Baudouin d'Aumeries
Co-Programmation & Développement : Marc-Olivier Méhu
Soutien technique & logistique : Manuel Goepfert

Contact : metmap@orbifly.com




SOURCES & CREDITS :

   NOAA